RH
20 20 20 21 21 21 21 21 21 21 22 21 21 21 21 22 22 22 23 24 25 26 27 28 28 28 28 27 25 25 27 28 26 24 23 23 22 22 20 18 14 12 13 15 16 17 17 15 14 12 11 12 13 12 10 8 7 12 32 55 57 47 50 58 54 52 52 49 48 47 47 46 45 46 43 38 35 36 40 43 43 39 37 35 33 29 24 19
19 20 20 21 21 21 22 22 23 22 23 23 23 23 23 23 23 23 24 24 25 26 27 28 29 29 29 28 27 25 25 28 28 26 25 24 23 22 22 21 18 15 12 13 14 16 17 17 17 15 13 13 15 14 11 10 9 7 12 36 67 75 67 64 58 51 51 48 47 48 48 49 46 42 34 27 22 21 22 22 22 22 22 21 18 16 14 14
19 19 19 20 20 21 22 22 23 23 23 24 24 24 24 24 24 24 25 25 26 27 28 29 30 31 31 30 28 27 24 25 29 29 27 25 24 24 23 22 21 19 15 12 12 14 16 17 17 18 15 12 14 15 13 10 8 9 8 16 51 88 86 68 57 49 44 42 40 40 38 37 34 28 22 17 15 14 14 14 15 16 17 16 15 15 15 14
19 19 19 19 20 20 20 21 21 22 23 24 24 24 25 25 25 26 26 26 27 27 28 29 30 31 32 32 30 28 26 24 26 29 29 27 25 25 24 23 22 21 19 16 12 12 14 17 18 18 17 14 13 15 14 11 9 8 9 11 29 74 96 79 59 46 40 38 37 34 29 26 23 19 15 14 13 14 15 15 16 17 18 17 15 14 14 13
21 21 21 20 20 20 20 20 21 21 22 23 24 24 25 25 25 26 26 27 28 28 29 29 30 31 32 33 33 30 27 25 25 27 29 28 26 26 25 24 23 22 21 19 16 14 12 14 17 19 19 15 13 14 14 12 10 8 8 12 21 54 90 84 56 42 41 40 33 27 23 20 19 17 16 16 17 19 19 20 20 20 19 18 17 16 15 15
20 20 21 21 21 21 21 21 21 21 21 22 23 24 24 25 25 25 26 26 27 28 29 30 30 32 32 33 33 31 29 26 24 26 27 29 27 26 28 26 23 23 23 21 19 17 14 12 14 17 19 18 14 11 13 13 11 11 8 15 32 56 84 80 50 38 42 37 27 23 22 20 20 19 20 22 22 23 24 25 25 25 24 23 21 19 18 17
19 18 18 19 19 20 20 21 21 21 21 22 22 23 23 23 24 24 25 25 25 26 27 28 30 31 32 33 33 32 31 29 25 25 26 28 28 26 28 29 26 23 23 23 21 19 17 14 12 15 18 19 18 13 11 13 12 13 10 18 41 62 73 65 43 37 39 33 25 25 28 34 38 35 33 34 32 32 32 31 31 31 29 27 25 24 24 22
24 23 21 19 19 18 18 18 19 20 20 21 21 22 23 23 24 24 24 24 23 24 25 26 27 29 30 31 32 32 32 30 27 27 26 27 29 27 26 30 30 26 24 24 23 21 20 18 14 13 17 19 19 17 13 12 13 15 13 14 27 38 42 41 35 33 32 27 21 24 37 50 59 58 50 43 41 42 40 37 35 33 31 31 31 30 26 22
31 30 29 27 25 23 22 20 19 18 19 19 20 20 20 21 22 23 24 24 23 22 23 24 24 25 27 29 29 30 32 31 29 27 26 27 29 28 26 28 31 29 26 25 24 23 21 20 18 14 14 18 20 20 17 14 13 15 17 16 17 20 24 31 33 29 23 21 17 19 30 38 48 56 49 40 40 42 42 41 39 39 39 37 33 27 21 16
34 33 33 33 32 31 30 28 26 23 22 20 19 19 19 19 19 21 21 22 24 23 23 23 23 24 24 26 26 27 30 31 28 26 27 29 29 30 28 27 29 31 28 26 25 24 23 21 20 18 14 14 18 21 20 17 14 12 17 20 21 19 19 25 29 24 17 17 16 14 17 19 28 40 36 30 35 39 44 45 46 49 47 37 28 21 16 14
36 36 35 34 33 33 33 33 32 31 30 27 25 22 20 20 18 19 19 19 20 22 23 23 23 24 23 24 22 23 29 29 26 24 27 29 28 30 31 29 28 30 31 28 27 26 25 23 21 20 18 14 15 19 21 20 17 13 14 20 25 26 23 22 20 16 16 18 18 16 16 15 19 27 26 26 32 36 40 43 49 54 44 30 24 19 17 18
40 39 37 37 35 34 34 34 34 33 34 33 33 31 27 25 22 20 19 19 18 18 20 20 21 22 23 23 20 23 28 27 24 23 26 28 28 28 30 31 29 29 31 30 29 28 26 25 23 21 20 17 14 16 20 21 20 17 14 14 20 26 28 27 22 21 26 28 24 23 27 27 29 34 33 32 34 33 34 39 50 51 36 28 25 22 22 23
43 42 40 40 38 37 36 35 35 34 34 35 35 35 34 32 29 26 24 21 20 19 19 19 19 19 20 20 19 22 25 24 23 24 26 27 27 27 28 30 30 29 31 32 31 30 28 26 25 23 21 20 17 14 16 20 20 19 17 14 13 15 19 23 27 35 44 41 29 24 30 38 39 38 34 31 31 32 34 43 50 43 32 30 29 27 27 27
43 43 42 42 42 40 39 37 35 35 35 36 36 36 35 35 34 32 30 27 25 23 21 21 20 19 18 18 19 20 20 20 20 22 26 27 26 25 26 27 30 29 28 32 33 30 29 28 26 25 23 21 20 16 14 17 20 21 20 17 14 11 11 13 20 37 55 57 44 28 23 31 35 33 32 32 33 34 38 44 45 38 34 33 32 34 35 30
36 37 38 39 41 41 41 40 38 36 36 38 38 38 37 35 35 34 34 33 31 28 26 25 24 23 21 19 21 21 18 16 16 19 22 25 25 24 25 25 27 28 27 30 33 30 29 30 27 26 25 23 21 20 16 15 18 21 22 21 18 15 11 9 11 25 44 52 50 40 29 29 34 33 30 30 31 31 34 41 41 39 40 34 30 32 31 24
28 29 31 32 34 36 37 39 38 37 37 39 40 41 40 38 36 35 34 34 34 33 31 29 27 27 25 23 25 24 20 18 16 17 19 21 23 23 24 25 26 26 26 28 31 29 28 30 29 27 26 24 22 22 19 16 16 18 22 24 22 19 15 11 10 15 25 31 35 45 48 41 34 27 22 24 29 28 28 33 37 44 45 33 23 22 21 18
23 24 25 26 27 28 30 32 33 34 35 38 39 41 42 42 40 39 37 35 35 35 34 33 31 30 28 27 29 26 23 23 20 18 19 19 20 20 20 22 25 26 26 27 28 28 27 29 29 28 27 26 25 22 21 19 17 15 17 22 24 22 18 16 13 13 18 22 25 38 53 45 27 19 17 20 26 28 28 31 37 48 52 41 30 26 25 23
17 18 19 21 22 23 24 25 27 28 30 32 34 37 39 41 42 41 40 38 36 35 35 34 34 33 31 31 31 29 26 26 24 22 21 21 20 19 19 19 22 24 26 28 28 27 26 27 28 27 26 26 26 24 22 21 19 17 15 17 22 23 21 19 19 18 17 19 19 25 35 31 17 13 14 14 18 23 25 28 34 41 47 49 47 44 40 36
12 13 14 15 16 17 19 20 21 22 24 26 28 30 33 36 38 40 41 41 41 39 37 35 35 35 33 32 32 31 30 29 27 26 24 24 23 21 20 20 19 21 24 27 29 27 25 27 28 26 25 26 27 26 24 22 21 20 17 15 17 20 23 20 20 23 25 25 22 19 21 18 12 13 15 13 12 15 17 19 22 24 27 31 35 37 37 36
12 12 12 11 12 12 13 14 16 18 18 20 22 23 26 28 31 34 36 39 41 41 40 38 37 37 33 33 33 33 33 31 29 28 27 26 25 24 23 22 20 21 23 25 27 27 25 28 29 26 24 25 25 27 26 24 22 21 19 17 15 15 20 22 21 22 26 30 30 26 19 15 23 31 31 27 19 14 15 15 14 16 18 19 20 22 22 24
15 14 13 12 12 11 11 12 11 13 14 15 16 18 20 22 24 27 29 32 34 37 39 40 42 40 34 33 34 34 34 33 32 30 28 27 26 26 26 24 23 23 24 24 25 25 24 28 30 25 23 24 24 28 28 25 24 22 21 20 18 15 15 19 22 22 24 26 30 32 24 21 35 41 35 34 32 22 18 19 18 19 21 22 22 22 22 23
18 17 16 15 14 13 12 12 11 11 11 12 12 13 15 16 18 20 23 25 26 29 33 37 42 42 35 34 36 37 37 35 33 31 27 26 26 26 27 26 25 25 25 24 24 24 24 27 27 23 22 24 25 28 28 26 25 24 22 21 20 19 15 15 17 20 23 24 25 29 29 28 33 34 26 26 30 28 24 23 23 22 23 24 24 24 25 25
21 21 20 19 17 16 14 13 13 12 11 11 11 11 11 12 14 15 17 20 20 22 25 29 35 37 35 35 37 40 41 37 33 31 28 27 26 27 28 27 26 25 25 27 27 26 26 26 24 20 21 24 25 27 28 27 25 25 24 22 21 20 18 16 15 15 19 23 25 26 27 27 26 26 25 22 23 26 26 25 26 25 24 26 26 27 27 27
23 23 22 22 21 19 18 17 15 14 13 12 11 11 11 10 11 12 13 15 16 16 19 23 27 30 31 32 35 40 44 42 37 34 32 30 27 26 27 28 27 25 24 27 29 28 28 25 22 19 19 22 25 26 27 28 27 25 25 24 23 21 20 19 17 15 15 17 21 24 25 26 25 23 24 24 24 24 25 26 27 27 26 27 29 29 29 29
26 26 25 24 24 22 21 21 20 19 17 15 14 12 12 11 10 11 11 12 13 13 13 17 20 24 26 26 29 35 41 44 41 37 34 32 29 27 27 26 26 26 25 26 28 30 29 27 24 21 19 20 23 25 27 28 27 26 25 24 23 22 21 21 19 18 17 15 16 20 22 23 25 25 24 24 24 24 26 27 27 28 27 27 28 28 29 29
35 34 33 29 27 25 23 22 22 22 22 20 18 15 14 13 11 11 11 11 12 12 11 12 15 18 21 23 24 27 33 39 39 36 37 36 32 29 28 26 25 26 26 26 27 29 30 28 26 23 21 21 22 24 26 27 28 28 26 24 23 23 22 21 20 20 19 17 17 17 18 18 20 22 24 25 25 25 26 27 29 30 29 29 28 28 29 28
48 48 46 41 36 31 26 23 23 23 24 24 22 21 17 15 14 12 12 12 12 12 11 10 11 13 16 19 21 21 25 31 33 32 36 39 37 33 30 28 27 26 26 26 26 29 30 29 27 26 24 23 23 26 27 27 28 28 25 22 21 22 23 22 21 20 19 19 20 19 16 16 16 17 20 22 24 24 25 26 28 31 31 31 31 30 29 28
60 60 62 58 49 44 36 26 24 25 25 25 24 24 23 19 18 16 13 13 14 14 12 11 10 10 12 14 17 19 20 23 26 27 31 35 36 35 33 31 29 27 25 24 27 30 30 29 27 26 25 25 26 28 27 26 27 25 21 19 19 21 22 22 22 21 20 19 21 21 18 17 16 15 17 18 19 19 21 23 25 28 29 28 29 28 25 24
70 67 74 75 65 58 52 37 29 29 27 27 25 24 25 24 21 20 18 16 17 16 14 12 11 9 10 11 13 16 17 19 21 23 25 28 31 34 35 36 34 30 25 23 26 30 29 27 27 24 22 25 28 28 26 25 25 22 18 17 17 19 21 22 23 23 21 20 21 21 19 19 18 18 18 17 17 17 17 18 20 23 25 25 25 24 22 21
84 77 80 86 79 70 65 53 42 36 30 29 30 26 25 26 25 23 23 23 23 21 16 13 12 11 10 10 11 13 15 16 17 19 21 23 26 29 32 34 34 32 28 24 25 28 28 27 27 24 23 25 27 26 25 26 24 20 17 16 15 17 19 21 23 24 23 22 23 21 19 19 19 20 19 17 17 18 18 17 18 19 20 20 21 21 21 20
94 91 89 92 90 82 74 65 56 46 38 34 34 30 26 25 26 25 27 32 33 27 20 15 13 12 10 10 10 11 12 14 15 16 18 20 22 24 26 29 31 31 29 27 26 28 28 27 27 27 26 26 25 24 25 27 26 23 20 18 17 17 19 20 22 24 24 25 25 23 22 21 19 19 20 19 19 20 19 18 18 18 18 18 18 19 20 19
96 98 99 98 98 94 84 74 65 55 48 43 37 34 29 24 25 28 32 37 38 33 25 17 14 13 12 11 11 11 11 12 13 14 15 17 19 21 23 25 28 29 30 29 30 30 30 29 28 29 28 27 26 24 24 25 26 25 23 22 20 18 19 21 22 24 26 27 27 25 25 24 22 20 19 20 20 21 20 20 20 20 19 19 19 19 20 20
99 100 103 105 105 104 97 85 72 61 56 52 42 37 33 25 27 36 40 42 40 35 27 19 17 15 14 13 12 12 11 11 11 12 14 15 17 19 21 22 24 26 27 29 30 31 31 31 31 30 29 28 28 26 25 26 29 30 28 26 23 21 21 22 24 27 28 28 27 27 27 26 24 23 21 20 20 20 20 21 21 21 21 20 20 21 22 22
101 101 102 105 107 107 106 97 83 69 60 55 50 41 33 31 42 51 50 45 40 33 26 23 21 19 17 15 13 13 12 12 11 11 12 13 15 17 18 20 21 22 24 26 27 28 29 30 30 30 31 30 29 28 28 28 31 32 31 29 26 23 24 24 24 26 28 28 28 27 27 26 24 25 25 23 23 23 21 20 20 20 20 20 20 21 22 22
99 101 100 103 104 106 107 103 95 80 62 58 55 42 36 48 64 63 53 45 37 31 28 27 26 23 21 18 16 15 13 12 12 11 11 12 13 15 16 18 19 21 22 23 25 27 28 29 29 30 30 30 29 28 28 28 28 28 28 26 26 26 25 24 23 24 25 27 28 28 28 25 22 23 26 26 26 26 24 22 20 19 19 19 19 19 19 20
99 100 98 100 103 105 105 105 103 88 70 61 52 47 58 72 71 64 59 49 38 32 30 28 27 26 25 22 19 18 15 14 13 12 11 11 12 13 15 16 17 18 20 21 23 25 28 30 32 31 30 30 29 27 27 26 26 27 26 25 29 31 28 24 23 23 23 24 26 28 29 26 21 21 26 27 26 28 27 26 25 24 23 22 21 20 19 19
100 101 101 100 101 104 105 106 104 95 81 65 53 63 85 88 76 71 68 57 41 33 31 29 28 28 27 25 23 21 18 16 15 14 12 12 12 12 13 15 16 17 18 20 21 23 25 29 31 32 31 31 30 29 27 25 25 25 24 25 29 28 25 23 24 23 21 22 25 27 29 29 23 22 25 26 27 27 27 27 28 28 28 28 27 26 25 24
104 105 105 103 102 102 105 107 105 100 87 69 64 80 95 96 94 86 70 55 44 36 33 32 30 29 29 28 26 24 22 20 17 15 14 13 12 12 13 14 15 16 17 18 19 20 22 25 28 30 30 31 31 29 27 25 23 24 24 24 24 21 19 20 22 23 23 22 24 26 28 30 28 25 23 23 26 26 26 26 27 28 29 29 29 29 29 29
107 108 108 105 103 101 102 105 107 103 89 77 80 92 95 98 104 92 69 56 50 43 39 38 34 32 30 29 29 27 25 24 22 19 16 15 14 13 13 13 13 15 17 17 18 19 20 22 26 28 29 30 30 28 26 24 22 23 24 24 22 20 19 19 19 23 24 23 23 25 26 29 31 29 25 23 24 25 25 26 27 28 29 29 29 30 30 30
106 109 110 105 102 101 100 103 107 105 93 86 89 94 94 98 103 98 81 65 57 53 48 44 39 35 32 30 31 30 28 28 27 24 21 17 15 15 14 13 13 14 15 16 17 18 18 20 23 26 28 29 29 28 28 27 25 23 23 23 23 21 21 20 20 23 25 25 24 24 26 28 30 31 29 28 26 25 25 27 28 30 29 29 30 30 30 30
105 108 108 102 99 100 100 101 104 104 99 93 92 93 95 98 100 102 93 75 64 59 54 50 44 39 36 33 33 32 31 30 30 28 25 21 17 16 15 14 13 13 13 15 16 17 18 18 20 23 25 27 28 29 29 29 27 25 23 23 24 24 23 22 22 24 27 29 27 26 26 29 31 31 31 30 29 27 27 27 30 31 31 31 31 31 32 31
104 105 102 98 97 96 96 98 99 98 99 99 94 90 91 96 100 103 98 84 74 66 60 58 52 45 43 39 36 33 32 31 30 30 29 26 20 17 16 15 14 13 13 13 15 17 18 18 18 21 23 24 26 28 29 29 28 26 24 23 23 23 22 21 20 22 25 27 27 27 25 27 31 32 31 31 30 28 28 29 31 32 32 32 32 32 33 33
99 101 96 92 93 92 90 91 91 90 93 97 94 87 87 94 101 104 98 90 84 76 67 64 59 52 49 46 40 34 32 32 32 32 33 30 25 20 18 16 15 14 13 13 14 15 17 18 18 19 21 22 24 26 27 28 27 26 24 23 23 23 23 22 21 21 22 21 22 24 25 27 31 32 32 31 31 30 29 30 32 33 34 34 33 34 34 34
84 88 86 82 83 85 85 84 83 82 85 89 92 91 90 90 94 101 99 91 87 81 70 65 63 59 57 53 45 36 33 34 34 34 35 34 31 26 20 18 17 15 14 13 13 14 15 17 17 18 19 20 21 22 24 25 26 26 25 24 24 25 25 25 23 22 20 18 18 20 22 28 33 33 33 33 33 33 31 31 33 34 35 35 35 36 35 36
62 65 66 66 67 72 75 75 75 75 74 78 86 92 93 89 91 99 98 89 85 81 75 71 70 68 65 60 51 40 34 34 36 36 36 37 36 31 24 19 18 17 15 14 13 13 14 15 17 18 18 19 19 20 22 23 24 25 25 25 24 24 25 25 24 23 21 20 19 17 21 33 38 35 35 36 35 34 33 33 35 35 36 37 37 38 38 38
43 45 46 47 51 56 61 64 66 67 66 68 76 84 90 91 93 96 93 87 84 82 81 79 76 73 70 65 58 49 39 36 38 39 38 39 39 34 27 22 21 19 17 15 14 13 13 14 16 17 18 18 19 20 21 22 23 23 24 24 24 23 24 24 24 23 22 22 22 19 24 37 43 40 38 38 37 36 36 36 37 37 37 38 39 39 40 40
33 34 34 35 37 42 47 51 55 58 58 61 67 75 85 94 97 94 87 84 86 85 85 87 84 79 78 75 66 57 46 39 38 40 40 40 41 36 30 26 23 21 19 17 15 14 13 13 14 16 18 18 18 19 20 20 21 22 22 23 23 23 23 24 24 24 24 24 23 24 28 36 44 46 44 42 41 40 39 39 39 40 39 39 40 40 41 42
28 29 29 29 29 31 37 42 46 48 50 54 59 67 80 92 95 91 82 80 88 92 91 95 94 87 83 80 71 61 52 43 40 42 43 42 42 39 34 30 26 23 20 19 16 15 14 13 13 15 17 18 19 18 19 19 19 20 21 22 22 22 21 22 23 24 25 24 24 27 29 31 38 45 47 46 46 45 44 43 42 42 41 40 40 41 42 43
22 24 25 25 25 25 28 33 38 42 44 47 52 61 73 84 90 91 85 80 89 98 97 99 99 91 85 83 76 70 64 54 49 48 47 45 44 41 37 33 29 25 23 21 18 16 16 14 13 14 15 18 19 19 18 18 18 19 20 20 21 21 20 20 22 22 23 23 23 26 27 25 29 35 40 45 47 46 45 45 44 43 42 41 41 42 44 45
16 18 19 22 23 22 23 25 30 37 39 41 47 55 66 78 87 92 90 84 89 100 103 101 100 94 89 87 82 80 75 64 56 52 48 45 43 42 40 36 31 28 25 23 20 17 17 16 14 14 14 16 19 19 18 17 17 18 18 19 20 20 19 19 20 21 20 21 22 23 23 23 25 28 33 40 42 41 41 43 45 44 42 40 41 43 45 45
12 14 15 17 19 19 20 21 23 30 34 37 42 48 59 74 82 89 93 91 95 104 104 102 102 97 93 91 88 88 83 73 65 57 49 44 43 44 44 39 34 31 28 25 23 19 18 17 15 14 14 15 18 19 19 17 16 16 17 18 19 19 19 18 18 19 19 20 21 22 22 23 26 28 31 34 34 34 35 38 40 39 37 36 38 39 41 41
7 9 10 12 14 15 17 18 18 23 28 33 38 42 50 62 73 86 94 95 102 108 102 102 106 100 95 95 92 91 90 84 76 65 53 46 44 46 46 41 37 35 31 28 26 22 19 18 16 15 14 14 16 18 19 18 17 15 15 16 17 18 18 18 18 19 19 20 20 21 22 23 26 28 28 29 29 29 31 32 33 33 32 32 33 34 36 37
Wind_Speed
25 25 24 23 23 22 21 21 20 19 19 18 17 16 15 13 12 12 12 11 11 11 11 12 14 15 15 14 13 12 13 15 16 17 18 20 21 22 23 24 24 24 25 25 26 26 27 28 29 30 30 27 21 15 9 4 2 7 12 13 13 13 12 11 10 9 8 9 10 10 11 12 12 13 12 11 11 11 11 12 12 12 13 13 14 14 15 15
28 28 27 26 26 25 24 23 22 22 21 20 20 19 18 17 15 13 13 13 12 12 11 11 12 14 15 15 14 12 11 12 14 15 16 17 18 20 21 22 23 23 23 24 25 25 26 27 28 29 30 30 27 21 15 10 4 2 9 13 13 12 11 11 11 9 7 6 8 9 11 12 12 12 10 9 9 9 9 9 9 9 10 9 10 10 9 9
31 31 30 30 29 28 27 26 26 25 24 23 22 21 21 20 18 17 16 15 14 14 13 13 13 13 15 16 16 14 11 10 12 13 13 14 16 17 18 20 21 22 22 22 23 24 25 26 27 28 29 30 29 26 21 15 9 3 5 10 13 13 11 12 12 9 7 7 6 7 9 10 9 8 8 7 7 7 7 7 7 6 5 4 4 4 3 3
34 34 33 33 32 32 31 30 29 28 27 26 25 24 24 23 22 20 19 17 16 16 16 15 15 15 15 16 17 16 13 11 10 11 12 12 13 15 16 17 18 20 21 21 22 22 23 25 26 27 27 29 30 28 25 20 13 6 2 4 10 13 12 11 11 9 8 7 5 5 6 6 6 6 6 5 5 5 6 7 6 5 4 3 2 2 1 0
37 36 36 36 35 35 34 34 33 32 31 30 29 28 27 27 25 24 22 21 20 19 18 18 17 17 17 17 17 17 16 13 11 10 11 11 11 12 14 15 16 17 19 20 20 21 22 23 24 25 26 27 29 29 27 23 18 10 4 2 4 9 12 12 10 9 8 6 5 5 5 5 5 4 4 4 5 6 7 7 6 5 5 4 3 2 2 1
39 39 38 38 38 37 37 36 36 35 34 33 32 31 31 30 29 28 26 25 23 22 21 21 19 19 18 18 19 19 18 16 13 11 11 11 10 10 12 14 14 15 17 18 19 20 21 21 22 24 25 26 27 29 29 26 22 16 10 8 5 6 11 12 10 9 9 9 7 6 5 4 3 3 3 5 7 7 7 6 5 5 4 3 2 2 1 1
40 40 40 40 39 39 39 39 38 38 37 36 36 35 35 34 33 32 31 30 28 26 25 24 23 22 21 20 21 20 19 18 16 13 12 11 10 8 9 12 13 13 15 16 17 18 19 20 21 22 23 24 26 27 29 28 25 21 16 12 9 7 10 11 10 11 12 12 9 7 5 5 4 4 5 7 8 7 7 6 5 4 3 3 2 1 0 1
40 40 40 40 40 40 40 40 39 39 39 38 38 38 37 36 36 35 35 34 32 30 29 28 27 25 25 23 23 22 21 21 19 17 14 12 12 10 8 9 12 12 13 14 15 16 17 18 19 20 21 22 24 25 27 28 27 24 21 16 11 8 10 10 11 12 13 13 10 7 6 6 7 6 6 8 8 7 7 6 4 3 2 2 1 0 1 2
43 43 42 41 41 41 40 40 40 39 39 39 40 40 40 39 38 38 37 37 36 34 32 31 30 29 28 27 26 25 24 23 22 20 17 13 13 12 10 8 10 11 11 12 14 15 15 16 17 18 19 20 21 23 25 27 27 25 24 20 13 8 8 10 11 12 13 12 10 7 6 6 7 7 7 7 7 6 6 5 4 2 1 1 0 1 1 1
47 47 46 45 44 43 43 42 41 40 39 40 40 41 41 40 40 40 40 39 39 37 35 34 33 33 31 30 30 27 26 26 25 23 20 16 15 14 13 11 10 11 11 11 12 13 14 15 15 16 17 17 18 20 22 24 25 25 24 22 18 11 7 8 9 11 12 12 10 7 6 4 5 5 5 5 5 5 5 5 3 2 1 1 0 1 2 3
52 51 50 49 49 48 47 46 44 43 41 41 41 42 41 41 40 41 41 40 40 39 39 37 36 35 34 34 32 28 28 30 27 25 22 20 18 16 15 14 12 11 11 10 11 12 13 13 14 14 15 15 16 17 18 20 22 23 22 21 20 16 11 8 7 9 12 13 10 8 6 4 3 3 3 3 3 3 4 4 3 3 2 2 2 3 5 7
55 55 54 54 53 52 51 50 49 47 45 44 44 44 43 42 41 41 41 41 41 40 40 39 39 38 37 37 33 30 33 33 29 27 25 23 21 19 18 17 15 12 12 11 10 11 12 12 12 12 13 13 14 14 15 17 18 20 20 20 19 17 15 13 13 15 17 15 10 9 7 4 3 2 2 1 2 2 3 3 4 3 3 2 4 7 8 10
58 58 58 57 57 57 56 55 53 51 50 49 48 48 47 46 44 42 42 42 41 41 40 40 40 39 39 39 35 34 38 35 30 29 27 26 25 23 21 19 18 15 14 13 11 11 11 11 11 11 11 12 12 12 12 13 15 16 17 18 17 16 15 15 17 20 21 18 14 10 7 3 2 2 1 2 3 4 4 4 4 3 3 4 7 9 11 13
61 61 61 60 60 60 59 59 57 56 54 53 53 52 51 50 48 46 44 44 43 42 41 41 41 40 40 38 35 37 40 37 32 31 30 29 27 26 24 22 20 19 16 15 14 12 11 11 11 10 10 10 10 10 10 11 12 13 15 15 15 15 15 16 18 20 20 18 15 12 8 5 4 3 3 4 5 4 5 6 5 4 5 7 10 12 13 14
64 64 64 64 63 63 63 62 61 60 58 57 57 57 56 55 53 50 48 47 46 45 43 43 42 41 40 37 36 39 40 37 33 32 34 33 30 29 28 25 23 22 19 17 17 15 13 12 11 11 10 8 8 9 9 9 9 10 12 13 13 13 13 15 19 20 17 14 12 11 10 9 8 6 6 7 6 4 5 7 7 7 8 10 13 14 14 15
68 68 67 67 67 66 66 66 65 64 62 61 61 60 60 59 57 55 53 51 50 48 46 45 44 44 42 38 37 40 40 37 33 33 35 34 33 32 30 28 26 24 23 20 20 19 16 14 13 12 11 9 8 7 7 7 7 7 9 10 11 11 11 12 17 20 17 13 10 8 9 9 10 9 9 10 8 7 7 8 10 11 12 13 14 15 14 14
70 71 71 70 70 69 69 69 69 68 66 65 65 64 63 63 62 60 58 56 54 53 51 49 48 47 46 42 40 41 41 38 35 34 35 36 35 34 32 31 28 27 26 24 24 23 20 18 16 14 12 11 9 7 6 5 5 5 5 7 8 8 8 10 14 17 17 14 11 8 7 8 9 10 10 11 11 10 9 10 11 12 12 12 13 13 13 12
71 72 73 73 72 72 72 72 72 71 69 68 68 68 67 66 65 64 63 61 59 57 56 54 52 51 50 47 44 43 42 41 37 35 36 36 36 34 33 32 30 30 28 28 27 26 24 22 20 18 15 13 11 10 8 6 5 3 3 3 5 5 5 7 10 12 13 12 10 9 8 7 7 8 8 9 10 10 9 10 10 11 11 10 9 9 8 8
68 70 72 73 74 74 74 74 74 74 73 72 71 71 70 70 69 68 67 65 64 62 60 58 56 56 55 51 48 46 46 44 40 38 37 38 37 35 34 33 32 31 30 31 31 30 27 25 24 23 19 16 14 13 11 8 7 5 3 2 1 2 3 4 6 9 10 8 7 7 6 5 4 5 6 6 8 8 8 8 9 9 9 9 8 7 6 5
63 66 68 70 72 73 74 75 76 76 76 75 74 74 73 73 72 72 71 70 68 66 64 62 60 60 58 55 51 50 51 49 45 42 40 40 39 37 36 35 33 32 32 34 34 32 29 28 30 28 23 20 17 15 14 12 9 8 6 4 3 1 1 1 3 6 7 6 4 4 3 3 4 3 4 4 5 6 6 5 6 8 8 8 8 7 6 6
58 60 63 65 68 69 71 73 75 76 77 77 77 76 76 76 75 75 75 74 73 70 68 66 65 66 62 58 55 54 55 54 50 47 45 43 41 39 38 37 35 34 35 36 35 33 30 32 36 32 26 23 19 17 18 15 13 12 10 7 6 5 3 2 1 3 5 5 4 3 3 4 3 1 2 3 4 4 5 5 5 6 6 7 7 7 7 6
50 53 57 60 62 64 66 68 71 73 75 76 78 78 78 78 77 77 77 78 77 74 71 70 69 70 67 62 59 58 59 59 56 52 49 47 44 42 41 40 38 37 37 36 36 34 32 36 40 35 28 25 22 21 21 19 17 15 14 11 9 8 7 4 4 3 4 4 4 4 5 5 5 4 2 2 4 4 4 4 4 4 5 6 6 6 6 5
43 46 49 53 56 59 60 63 65 67 69 72 75 76 78 79 79 79 78 80 82 77 73 73 73 74 71 67 64 62 63 64 61 56 53 51 48 46 44 42 41 40 38 37 37 36 36 41 43 36 29 28 26 26 25 23 21 19 17 15 12 11 9 7 6 6 5 5 5 5 6 6 6 5 2 1 3 4 4 3 3 3 3 4 4 4 4 3
42 43 44 46 49 51 54 57 60 62 64 67 69 71 74 76 78 79 79 81 85 82 76 75 75 76 75 72 68 66 67 67 66 62 59 57 53 50 48 46 44 42 41 40 40 39 39 45 44 35 31 30 29 28 27 27 26 24 22 19 17 14 12 11 10 8 7 7 7 7 7 7 7 6 5 4 3 3 3 2 2 2 2 2 2 2 2 1
45 46 46 46 46 46 46 50 53 56 59 62 64 67 69 71 73 76 77 79 85 86 80 77 77 77 78 75 72 70 70 71 71 67 63 61 58 55 53 51 47 45 44 44 43 42 42 47 45 36 32 31 31 31 30 31 30 28 26 24 21 17 15 15 13 12 11 9 8 8 9 9 9 8 7 6 5 4 3 2 2 1 1 1 1 0 1 1
48 49 50 49 49 47 44 44 46 48 52 56 60 63 65 67 68 70 73 75 80 86 85 80 78 79 79 78 76 73 72 74 75 70 66 66 64 60 58 55 51 49 48 47 46 45 45 49 47 38 34 33 32 33 33 34 33 33 32 28 25 21 18 18 17 15 14 10 9 11 12 11 10 9 9 8 7 5 4 3 2 2 3 2 2 2 2 3
52 52 53 53 53 52 48 44 43 43 46 49 54 58 61 63 65 67 69 70 74 81 84 82 81 80 80 80 79 77 74 76 77 74 70 70 68 65 62 59 56 54 52 49 49 48 48 52 50 42 37 35 34 35 36 37 37 38 37 31 27 25 22 21 20 18 16 12 13 16 15 13 13 11 11 10 9 7 6 5 4 4 4 4 3 4 4 4
54 55 56 57 56 56 54 49 45 44 45 45 48 52 55 58 61 64 66 67 71 76 79 80 80 81 81 81 81 80 78 77 78 77 74 72 71 69 66 64 62 60 57 53 51 52 53 55 54 47 42 38 37 39 40 40 40 42 40 33 30 28 25 23 22 21 19 15 17 20 18 16 15 13 13 13 12 10 8 7 6 6 6 6 5 6 6 6
56 56 57 59 59 59 59 55 50 49 49 47 46 47 50 53 55 59 62 64 69 74 76 76 77 78 80 82 82 82 81 79 79 79 76 74 73 72 70 69 68 65 61 56 54 57 59 59 58 52 45 41 41 43 42 41 42 43 39 34 31 29 27 26 25 24 22 18 21 24 22 19 17 15 15 15 13 13 11 10 9 9 9 8 8 9 9 9
57 57 57 59 61 61 62 60 56 54 53 51 50 48 46 47 50 53 55 59 66 71 73 74 74 74 76 79 81 82 83 82 81 81 78 76 75 76 75 73 71 69 65 60 58 61 62 62 62 55 48 46 45 45 44 42 43 42 38 35 32 30 29 28 27 26 24 22 26 28 24 22 20 19 20 17 14 14 14 13 12 12 12 11 10 10 11 12
59 59 59 60 62 63 63 63 60 59 57 55 55 52 48 45 45 47 48 53 61 67 71 72 72 71 71 74 77 80 83 84 83 83 81 79 78 78 77 75 74 71 68 64 62 63 64 64 64 59 53 51 49 47 46 44 44 42 39 36 34 33 31 29 28 27 24 27 32 30 25 25 25 23 22 18 16 17 18 16 15 15 15 14 13 12 14 16
61 61 61 61 63 64 65 64 64 62 61 59 57 55 52 46 42 42 46 52 57 61 67 70 70 70 69 71 73 76 80 83 85 85 84 81 80 79 79 78 76 74 71 68 67 67 66 66 66 64 59 56 52 51 50 47 45 44 41 38 37 35 33 31 29 27 27 32 38 32 27 30 29 25 23 21 20 22 21 18 18 19 18 17 16 15 16 19
63 63 63 63 64 66 66 66 66 65 63 63 61 58 55 48 44 46 50 53 55 58 64 67 68 69 70 70 71 73 76 80 83 86 86 84 82 82 81 80 78 76 74 72 71 70 69 69 69 67 63 60 56 54 52 49 48 47 45 42 40 38 36 34 32 31 31 36 41 36 30 33 32 27 25 23 22 23 23 22 23 23 22 21 20 19 19 22
67 66 65 65 65 67 68 67 67 67 66 65 64 61 55 51 52 55 56 56 56 56 60 64 66 68 69 71 71 71 73 76 79 83 86 86 85 84 83 81 80 78 77 75 74 72 72 72 70 69 66 63 60 57 55 54 53 52 50 48 45 41 39 38 37 37 37 39 43 39 33 35 34 29 28 25 24 26 27 28 28 27 26 24 24 23 23 24
72 70 69 67 66 67 69 69 68 69 68 67 67 63 57 57 60 61 60 59 56 54 56 60 63 66 68 69 70 71 72 73 75 79 83 86 86 86 85 84 82 81 79 78 76 74 74 72 71 72 71 68 66 63 61 60 58 56 55 52 46 41 41 42 41 41 40 41 44 40 37 39 35 31 31 30 29 30 31 31 30 29 28 27 26 26 26 26
75 74 72 70 68 68 69 70 70 70 70 69 69 65 61 63 64 63 63 62 57 55 55 57 60 63 65 67 69 71 72 73 74 76 78 83 86 87 87 86 85 83 82 80 79 77 75 73 74 75 74 72 71 69 67 65 62 60 59 53 47 45 46 46 43 43 43 42 42 41 41 42 37 33 35 34 32 33 33 33 32 31 30 30 29 29 29 29
78 77 74 72 70 70 70 71 72 72 71 71 69 65 64 66 67 66 66 65 62 58 56 55 57 59 62 65 68 69 71 72 74 75 76 78 82 86 88 89 88 86 84 83 82 80 78 77 78 78 76 75 75 73 71 69 66 65 61 55 53 53 52 50 46 45 44 42 42 41 42 44 40 37 38 37 36 36 35 35 34 33 33 33 33 32 32 32
80 79 77 74 72 71 71 72 74 74 73 72 68 66 66 67 69 70 69 68 66 62 57 55 55 56 59 62 65 68 70 71 73 75 75 75 78 83 87 90 90 89 88 87 85 83 81 80 80 80 79 79 78 77 74 71 68 66 63 60 61 59 54 52 49 46 44 43 43 44 44 44 44 43 41 40 40 39 36 35 35 35 36 36 36 36 35 35
81 81 79 77 75 73 73 74 75 76 75 72 69 68 68 68 71 73 72 70 68 66 62 58 56 55 55 57 61 65 68 69 70 73 75 74 76 80 85 89 91 91 91 90 88 86 84 82 82 82 82 82 82 80 76 72 69 68 66 64 65 62 57 54 51 48 46 45 44 45 45 44 45 47 46 43 42 40 37 36 36 36 38 39 39 39 38 37
83 83 82 80 78 77 76 76 76 77 76 74 71 71 70 71 72 73 74 72 70 69 67 63 59 56 54 54 58 63 66 66 67 71 74 75 75 78 82 86 90 93 94 93 91 89 87 84 83 84 84 84 82 79 76 73 72 71 69 68 67 65 60 57 54 50 48 46 45 45 44 44 47 50 49 48 45 42 39 37 38 39 40 41 42 42 41 40
85 85 85 84 82 81 80 79 78 78 77 76 74 73 73 73 73 74 75 75 73 71 70 67 63 58 56 54 56 60 64 65 65 68 71 74 76 77 80 84 88 92 94 94 93 91 89 86 85 86 87 84 80 78 77 77 77 76 74 72 70 67 64 61 58 54 51 49 47 46 45 45 49 51 51 51 50 46 42 41 41 42 43 45 45 44 44 43
89 88 88 86 85 85 83 82 81 80 78 77 77 77 75 74 74 75 76 77 75 74 73 71 67 62 59 57 57 59 62 64 64 65 67 72 75 77 80 82 85 89 92 93 94 93 92 90 88 88 87 83 81 81 81 82 82 80 78 75 72 71 68 64 60 57 55 53 50 49 47 46 49 52 52 52 52 49 46 44 44 44 45 47 47 47 46 46
92 91 91 89 88 88 86 85 84 82 80 80 80 79 78 76 75 76 77 78 77 76 74 73 71 66 62 61 60 59 60 63 63 62 63 69 74 77 79 81 83 85 88 92 94 95 96 94 91 89 87 85 85 86 86 86 85 83 78 75 73 70 68 65 62 60 59 57 54 53 49 46 49 52 53 53 53 51 48 47 47 47 46 48 49 50 49 48
95 95 94 92 91 91 89 87 86 85 83 82 81 80 80 78 77 77 79 79 79 79 76 74 73 70 66 65 63 60 59 60 60 60 60 65 71 77 80 81 82 84 86 90 93 96 97 95 93 91 90 89 89 89 87 86 84 81 77 74 72 69 68 67 66 64 62 59 57 55 51 48 50 53 54 54 54 53 51 49 48 49 49 49 51 52 51 50
99 98 97 95 94 93 92 90 89 88 86 85 83 82 82 81 79 79 80 81 81 80 78 76 74 72 70 68 66 62 58 57 58 59 59 61 67 75 80 81 82 83 85 87 91 95 96 96 95 94 92 90 89 87 85 83 82 80 77 75 74 73 71 71 70 68 64 60 58 56 52 49 52 55 55 55 56 55 54 51 51 51 51 51 52 53 52 52
103 102 101 100 97 96 95 94 92 90 89 87 86 84 83 83 82 82 82 82 82 82 80 78 77 75 73 70 68 65 61 57 57 58 58 59 65 73 79 81 83 84 85 86 89 92 94 96 97 95 93 90 89 87 85 85 85 84 81 79 78 77 75 73 73 70 64 62 61 57 54 53 55 57 57 57 58 57 56 54 54 54 54 53 53 53 53 53
105 105 105 104 102 99 98 97 96 94 92 90 88 87 86 84 84 84 84 83 83 83 82 80 78 76 74 73 70 68 65 59 56 57 58 58 63 71 77 81 83 84 85 85 86 89 91 94 96 96 94 91 90 90 90 90 90 87 85 83 81 80 79 77 75 70 65 64 63 59 57 58 58 60 60 60 59 59 58 57 56 56 56 54 53 53 53 54
106 106 107 107 105 103 101 100 99 97 95 93 91 90 88 87 87 86 85 85 84 84 83 82 80 78 76 75 73 70 67 62 57 56 57 58 62 69 75 79 83 85 85 85 85 86 88 91 94 95 95 93 92 93 94 93 92 90 88 86 85 84 82 80 77 72 69 68 64 60 61 61 60 61 62 60 60 60 59 59 58 57 57 55 54 54 54 55
110 109 109 109 108 107 105 103 102 100 99 96 94 92 91 90 89 88 87 86 85 85 85 83 82 80 78 77 75 71 69 65 61 59 59 60 63 67 73 77 82 84 85 85 85 84 85 88 91 94 95 95 95 96 97 96 94 92 90 88 87 86 83 81 78 75 74 72 67 65 65 64 62 62 61 61 61 61 61 60 60 59 58 56 55 55 56 57
113 112 112 111 110 110 109 106 104 103 102 100 97 95 94 93 91 90 88 87 86 86 86 85 84 82 80 78 76 73 71 69 65 63 62 61 63 66 70 75 80 83 84 85 84 83 83 86 89 92 94 95 97 98 99 98 96 94 91 89 88 87 85 82 80 78 76 73 69 68 66 63 62 62 61 62 63 62 61 61 61 60 59 57 57 57 58 59
113 113 113 112 111 112 112 110 107 104 103 102 99 97 96 95 93 91 89 88 87 88 88 86 85 82 81 79 77 74 73 71 68 66 63 61 62 64 67 72 77 80 82 83 83 83 83 85 87 89 92 94 97 99 99 99 98 96 92 90 88 88 86 83 80 79 76 73 70 68 65 61 61 62 62 64 65 63 62 62 62 62 60 59 59 59 60 61
108 109 110 110 110 111 111 111 109 106 104 103 101 99 98 97 95 92 90 88 88 88 88 87 86 84 82 80 78 75 74 72 70 69 66 62 61 63 66 69 73 78 80 81 83 83 82 83 85 87 89 91 95 99 99 99 99 96 91 88 87 87 86 83 82 79 76 74 72 69 64 60 61 63 64 65 66 64 63 63 63 63 61 60 60 61 62 63
Wind_Direction
251 252 254 255 257 258 260 263 265 268 271 273 274 274 273 274 279 288 298 304 310 317 324 328 332 334 337 342 352 6 14 15 18 25 29 31 34 35 35 34 36 38 40 41 42 43 42 41 41 39 35 31 30 28 22 11 251 227 228 228 225 218 213 216 219 224 233 243 252 257 260 261 261 261 261 264 267 267 268 269 272 277 280 282 284 285 286 287
252 252 253 254 255 256 257 259 260 262 265 268 271 273 274 272 272 274 281 289 296 302 309 315 320 324 326 328 335 345 0 8 11 16 23 27 29 31 32 32 31 33 36 38 39 40 40 40 39 38 35 30 27 24 20 13 0 260 232 225 223 222 216 216 213 208 218 236 252 259 261 261 258 258 258 259 261 261 262 265 268 272 275 279 282 284 288 291
254 254 254 255 255 255 256 256 257 258 259 262 264 267 270 271 272 271 272 276 282 289 293 299 305 310 314 317 321 327 338 353 1 4 13 21 24 25 28 30 29 28 31 33 36 37 38 39 37 36 35 32 27 23 20 16 10 350 248 224 214 213 214 219 216 203 202 212 227 246 253 252 250 250 248 246 247 251 253 253 251 250 252 261 267 271 280 294
254 255 255 256 256 256 256 256 256 257 258 258 260 262 264 266 268 269 269 271 273 278 282 285 291 296 300 305 309 314 321 332 343 351 359 10 20 20 20 25 27 25 25 28 31 34 35 37 37 35 34 34 31 25 22 21 18 11 298 227 205 204 207 217 220 210 201 198 198 213 227 230 229 228 229 226 224 229 230 228 222 204 182 177 192 188 165 2
255 255 256 256 256 257 257 257 257 257 257 258 259 260 261 262 263 264 264 266 267 269 273 276 279 284 288 293 297 302 307 313 322 333 342 353 9 18 14 15 22 23 21 22 26 30 33 35 36 35 33 33 33 29 26 26 25 22 27 83 177 192 201 211 216 208 192 182 186 187 198 208 209 209 210 208 207 214 213 205 191 173 157 151 149 131 99 34
257 257 257 257 257 257 257 258 258 258 258 258 258 259 260 260 261 262 261 261 262 263 265 268 271 274 278 282 286 291 296 300 306 315 323 333 349 9 11 6 11 19 18 17 19 24 28 32 34 35 34 31 31 31 29 29 32 33 46 76 100 164 192 200 202 198 177 167 173 171 176 193 202 204 193 196 204 204 196 180 163 154 147 139 129 109 79 13
260 259 259 259 258 258 258 258 258 258 259 259 259 259 259 260 260 261 261 260 260 260 262 263 265 267 270 274 278 282 287 290 295 301 306 316 327 346 4 0 359 9 13 12 14 17 22 27 32 34 34 32 30 31 31 31 35 39 49 72 93 139 174 184 189 190 174 161 156 151 158 177 185 199 193 196 199 189 171 151 137 139 143 137 132 113 40 317
261 261 261 260 260 260 259 259 258 258 258 259 259 259 258 259 259 260 261 261 261 260 260 262 263 264 265 267 271 275 279 283 287 290 294 303 312 321 340 351 349 355 5 6 7 11 15 21 27 32 34 34 31 30 31 30 34 40 49 64 89 127 153 169 179 182 170 149 135 134 146 165 172 181 187 187 182 168 154 134 125 136 142 131 112 23 318 303
260 260 260 260 260 260 260 260 260 259 259 259 259 259 258 258 258 258 259 260 261 260 260 261 262 263 263 264 266 269 273 277 281 283 287 293 300 306 314 329 337 341 352 358 358 1 8 13 20 28 32 35 34 31 31 30 31 38 49 60 74 108 144 160 167 175 164 135 117 119 130 152 159 166 172 170 162 152 142 133 135 148 131 112 40 350 330 10
261 261 260 260 260 260 260 260 260 260 259 259 259 259 259 258 258 257 257 258 259 259 259 259 260 261 262 263 263 265 269 272 274 278 282 286 289 296 301 307 318 327 335 346 350 351 359 5 11 21 28 33 36 35 33 32 31 33 45 58 68 81 112 143 162 175 153 116 101 104 108 123 140 156 166 156 150 147 143 146 158 158 146 161 129 108 102 90
262 262 262 261 261 260 260 259 259 259 259 259 259 259 259 258 258 258 258 257 257 257 257 258 258 259 260 261 261 263 265 266 269 274 278 280 283 286 290 294 300 309 317 328 338 339 346 355 1 10 19 27 34 37 36 35 34 32 38 52 64 72 79 96 129 145 121 98 90 92 89 86 106 142 156 142 143 148 150 157 164 158 164 170 135 120 110 103
264 263 263 262 262 262 261 260 260 259 258 258 258 259 259 258 258 258 258 258 257 256 256 256 256 257 257 258 260 262 261 262 265 269 272 274 276 277 279 284 287 292 300 309 321 326 331 341 349 358 8 18 27 36 39 38 38 35 35 44 56 65 72 79 86 89 85 80 81 87 86 76 82 114 125 126 130 133 138 142 148 155 165 149 122 118 115 112
265 264 264 264 263 263 262 262 261 260 259 258 258 258 258 257 257 256 257 257 257 256 256 255 254 254 255 256 257 258 259 259 261 263 265 267 269 270 270 273 277 280 285 293 301 308 317 326 334 343 355 7 15 27 37 39 41 40 37 39 47 55 63 70 73 73 71 69 70 76 84 94 103 104 116 113 103 104 108 117 139 154 154 128 116 116 117 115
264 264 264 264 264 263 263 263 262 261 260 260 259 258 258 257 256 255 255 256 256 256 256 255 254 253 253 254 255 256 257 257 256 258 260 260 262 264 265 265 269 272 274 281 287 291 300 309 316 326 337 353 1 12 28 37 40 42 39 37 40 47 52 61 68 70 69 65 63 68 81 107 117 107 103 91 85 93 108 125 142 145 133 119 114 114 115 115
263 263 263 263 263 263 263 263 263 262 261 260 260 259 259 258 257 255 254 254 254 254 254 254 254 253 252 251 253 254 255 255 254 255 257 257 258 259 261 262 263 266 269 273 278 280 285 292 299 308 317 331 345 354 11 29 36 41 42 36 33 38 45 54 64 69 70 66 63 70 84 99 103 93 85 80 81 98 124 137 140 133 124 115 111 111 112 113
263 263 262 262 261 261 261 262 262 262 261 260 260 259 259 259 258 257 255 253 253 253 252 252 253 253 252 250 251 253 254 255 254 254 256 256 256 256 258 260 261 264 267 269 271 273 276 279 284 290 297 307 319 332 347 10 27 37 45 43 32 29 36 49 61 68 69 68 69 77 84 92 95 90 84 82 84 95 113 129 134 132 125 118 113 112 111 111
264 264 263 262 262 261 261 260 260 260 260 259 259 259 258 258 258 257 257 255 253 252 251 251 251 252 252 250 249 251 253 254 252 252 254 255 254 254 255 257 258 260 263 264 266 268 269 271 274 276 280 287 294 303 315 336 0 21 40 51 43 26 29 46 58 66 69 69 70 81 86 88 93 94 89 86 88 91 99 112 124 131 129 125 121 118 117 114
263 263 263 263 263 262 262 261 260 260 259 258 258 258 257 257 257 257 256 256 254 253 252 250 250 250 251 250 249 250 251 252 251 250 252 254 254 254 254 254 255 256 257 259 261 263 265 266 267 267 268 272 279 284 288 299 314 335 5 45 59 36 23 44 58 64 68 69 68 77 88 88 88 90 90 90 92 93 94 103 114 123 127 128 126 124 124 121
263 263 262 262 262 262 262 261 261 261 259 258 257 257 256 256 256 256 255 255 254 254 253 251 250 249 249 249 248 249 251 250 249 248 249 252 253 254 253 252 252 253 253 255 256 258 260 263 263 262 263 264 266 273 275 276 282 290 303 319 52 64 27 37 66 72 71 71 67 71 83 90 84 77 80 86 93 98 100 105 112 116 120 124 127 128 128 126
267 265 264 263 262 261 260 260 260 260 260 259 258 257 257 256 255 255 255 254 253 253 253 252 251 250 249 248 247 248 250 250 248 246 246 249 250 252 252 251 250 250 250 251 253 254 257 260 261 258 258 258 259 266 270 266 266 270 272 278 278 233 126 38 76 91 91 89 86 84 94 119 116 73 56 71 85 99 108 111 113 115 114 115 118 121 123 121
268 267 267 266 264 263 261 260 260 259 259 259 259 258 257 257 256 255 255 254 253 251 251 251 250 250 249 248 246 246 248 249 247 245 244 245 246 248 250 250 250 249 248 248 250 252 254 256 257 255 254 255 257 261 263 261 260 262 261 258 265 261 228 194 180 130 121 121 125 136 154 168 180 297 354 72 91 102 113 116 118 118 115 113 112 111 113 114
269 268 267 267 266 265 264 263 261 260 259 258 258 257 257 256 256 256 255 255 253 251 250 250 249 250 250 248 246 245 246 247 246 245 245 244 244 245 247 248 249 248 248 249 250 250 250 252 253 253 252 253 254 255 258 259 257 257 257 252 251 258 253 228 208 191 166 159 157 161 175 195 225 261 295 94 108 118 123 125 128 125 120 117 113 107 108 111
276 273 270 268 266 265 264 264 263 262 261 260 258 257 256 255 255 255 255 255 255 252 250 249 248 249 250 248 246 244 245 246 246 245 245 245 243 243 244 246 247 248 248 249 249 248 247 249 251 250 250 251 251 252 256 258 256 254 255 251 245 247 254 250 233 216 199 191 190 191 198 208 222 227 213 159 131 133 137 135 134 132 125 120 114 108 105 101
286 283 278 274 270 267 264 264 263 263 262 261 260 259 257 256 255 254 253 254 255 254 250 249 249 249 249 248 245 244 244 246 246 244 244 244 243 242 242 243 243 245 247 247 247 246 246 249 250 249 248 249 249 252 254 256 256 254 252 251 246 242 245 247 245 239 222 209 209 213 219 221 222 221 213 202 182 158 152 149 145 150 138 126 116 108 104 96
293 291 288 284 280 274 268 265 263 262 262 261 261 260 259 258 256 254 253 252 254 255 252 249 248 248 249 248 246 243 243 245 245 243 243 243 243 242 242 241 241 242 244 245 246 245 246 250 251 249 247 247 247 248 250 252 254 254 251 248 246 241 239 241 243 245 241 231 223 223 228 230 230 230 223 216 213 200 184 180 189 213 234 228 179 178 264 277
295 294 293 291 288 284 277 271 267 264 262 261 260 260 259 259 257 256 254 252 253 254 253 249 247 247 248 249 247 244 242 244 245 244 243 243 243 242 241 241 240 240 241 243 245 246 246 251 252 249 247 245 244 245 247 249 251 252 250 246 244 242 238 239 238 239 245 245 237 235 235 234 236 238 235 230 227 218 206 203 201 226 250 257 259 258 260 271
296 295 294 292 291 289 285 280 275 271 266 261 260 259 259 258 258 257 256 254 253 254 253 250 248 246 246 247 247 246 242 242 245 244 242 242 242 242 241 241 240 239 239 240 243 246 246 250 251 248 245 244 242 242 243 244 245 248 249 246 244 242 239 239 240 240 242 240 240 243 241 237 238 239 240 240 239 233 225 222 216 221 237 243 252 258 257 264
297 296 294 293 292 291 289 285 282 280 275 267 261 259 258 257 257 257 256 255 253 253 253 251 248 246 245 244 245 246 244 243 244 244 242 242 242 242 241 240 240 239 238 237 240 244 245 247 248 246 243 242 240 238 239 240 242 246 250 249 246 244 241 241 243 244 242 235 238 244 243 241 242 242 242 244 246 245 237 235 235 232 240 245 249 258 264 266
296 296 294 293 292 291 290 288 286 284 281 276 270 262 258 257 256 256 256 255 253 252 252 252 250 247 245 243 243 244 244 244 244 244 243 242 242 242 241 239 239 239 238 236 238 242 244 246 248 246 244 242 240 240 240 239 241 245 249 250 249 246 244 243 243 244 244 239 240 244 243 242 244 244 244 243 245 249 246 243 244 242 245 249 254 262 269 271
294 294 293 292 292 291 289 289 288 285 283 281 279 272 264 259 256 255 255 255 253 251 251 251 251 249 246 244 242 242 242 243 244 244 243 241 241 241 241 239 239 239 238 236 237 241 244 246 248 248 246 244 242 244 245 242 243 247 250 251 252 250 247 245 244 245 247 246 244 245 245 244 241 239 243 245 245 249 249 246 248 250 250 252 255 262 268 270
293 292 291 290 290 289 288 288 287 285 284 283 281 278 273 265 260 257 256 256 254 252 251 251 251 250 248 246 244 241 240 241 242 243 242 241 240 241 241 240 240 239 238 237 237 239 242 245 248 248 246 244 244 246 246 245 246 249 250 251 252 252 250 247 246 248 249 249 247 245 245 246 243 239 242 247 244 245 249 250 251 253 254 257 258 261 265 267
291 290 289 288 288 287 287 286 285 284 284 283 281 280 277 272 267 263 261 259 257 254 251 251 251 251 249 247 245 243 240 239 239 241 241 240 240 240 240 239 239 239 237 236 235 237 240 243 246 247 246 244 244 245 247 246 247 249 249 248 248 249 249 247 246 247 247 250 251 247 243 246 245 241 243 244 243 248 253 255 253 252 253 255 257 259 263 266
290 289 288 286 286 285 284 284 283 283 282 281 281 280 278 277 275 272 266 263 260 255 253 252 251 250 249 247 245 244 242 239 238 238 239 239 239 239 239 239 239 238 237 236 234 234 236 239 242 245 246 245 244 245 247 247 246 246 246 244 244 243 243 242 241 241 241 246 251 249 245 247 248 245 244 244 247 252 254 251 250 250 252 253 255 256 259 264
288 288 286 285 284 283 282 281 281 281 281 280 280 280 280 280 278 274 270 267 263 257 254 253 251 249 248 247 246 245 244 241 239 237 237 237 237 237 238 238 238 238 237 236 235 235 235 236 239 243 244 244 243 243 244 244 242 242 241 240 239 238 237 237 235 234 235 240 249 251 250 252 252 250 249 248 248 250 250 250 251 253 254 255 257 258 259 264
286 286 285 284 282 280 280 279 278 278 279 279 278 279 281 279 275 272 271 270 267 261 256 253 251 249 247 246 246 245 244 243 240 238 236 236 236 236 236 237 237 237 236 236 235 235 235 236 238 240 242 242 241 240 240 241 241 242 242 241 241 240 238 237 235 234 233 237 246 251 252 253 253 253 253 250 248 250 252 253 254 256 257 258 259 260 262 264
283 283 283 282 280 278 277 277 276 276 276 277 277 279 278 275 272 272 272 271 269 264 259 254 250 248 246 245 244 244 244 243 242 239 237 235 235 235 235 235 236 236 236 235 234 234 233 234 236 238 240 241 241 239 238 239 240 241 242 242 241 239 238 237 234 234 234 235 241 246 249 253 253 251 253 252 250 251 252 254 256 258 260 260 261 262 263 263
282 281 280 279 278 277 276 275 274 274 274 274 276 276 274 272 271 270 269 270 270 266 262 258 253 249 246 244 242 242 243 242 242 241 238 235 234 234 234 234 234 234 235 234 234 233 232 231 233 235 237 239 240 240 238 238 239 241 242 241 239 237 237 237 234 234 235 235 237 240 245 250 253 251 251 252 252 251 251 254 257 260 262 262 262 263 264 264
280 279 278 277 276 275 274 273 272 272 271 272 274 273 271 270 269 267 267 269 270 268 266 263 258 252 248 245 242 241 241 241 242 241 239 236 234 234 233 233 233 233 233 233 233 233 232 231 232 234 235 236 238 239 238 238 239 241 242 241 242 242 241 240 238 236 236 235 234 236 239 244 250 252 251 251 251 252 252 254 258 260 263 264 264 264 265 266
279 278 277 275 274 273 272 271 270 269 269 270 270 270 269 267 266 265 267 268 269 269 268 265 261 257 251 246 242 239 239 239 240 241 240 237 235 234 233 232 232 232 232 232 232 232 231 231 231 233 234 235 237 239 239 239 239 241 242 243 245 245 243 243 242 239 237 237 236 235 237 239 244 249 252 253 253 253 254 256 259 261 262 264 265 266 266 266
277 276 275 274 273 272 270 269 268 268 267 267 267 267 267 266 265 265 265 266 266 267 266 265 263 259 254 248 243 239 237 237 238 239 240 238 235 234 233 232 231 231 231 231 231 231 231 230 230 231 233 234 236 239 240 241 240 239 241 242 244 245 244 244 243 241 240 240 239 238 238 238 240 245 250 254 255 254 255 256 258 260 262 263 264 266 267 268
275 274 273 273 272 270 269 268 267 266 265 265 265 264 264 264 264 263 263 263 264 264 265 264 263 261 257 251 245 240 237 235 235 237 239 239 236 234 233 233 231 231 231 231 231 231 231 231 230 231 232 233 235 237 239 240 240 238 238 239 241 242 242 241 240 240 239 238 238 238 237 236 238 242 246 250 254 255 254 254 255 257 260 262 264 266 268 269
274 272 271 271 270 269 268 267 265 264 263 263 262 262 261 261 262 262 261 261 261 261 262 262 262 260 257 254 248 240 236 234 233 235 237 239 238 236 234 233 232 231 230 230 230 230 230 230 230 230 231 232 233 235 236 238 239 238 237 238 239 241 242 242 242 241 240 239 238 239 238 236 237 241 244 247 251 254 254 254 254 255 257 261 264 265 267 269
272 271 270 269 268 267 266 265 264 263 262 261 260 260 260 260 260 260 259 259 259 259 259 259 260 259 257 254 250 243 237 234 233 232 235 237 238 237 235 234 233 232 230 230 230 229 229 229 229 229 230 230 231 232 233 235 237 238 238 238 240 243 245 246 245 242 241 242 241 240 240 238 238 241 243 246 249 252 253 253 254 255 256 258 261 263 265 267
271 269 268 267 266 265 264 263 263 262 261 259 259 259 258 258 257 257 257 257 256 256 257 257 257 257 255 253 252 247 240 235 233 232 233 235 236 236 236 234 233 232 231 230 229 229 229 229 228 228 228 229 230 231 233 235 237 239 239 240 241 243 245 246 245 244 244 245 244 244 243 240 239 241 243 246 248 250 252 253 254 255 255 256 258 261 264 266
269 267 266 265 263 263 262 261 260 260 259 258 257 257 256 256 256 255 255 255 255 254 255 255 254 254 253 252 252 250 244 238 235 233 232 234 235 235 236 234 233 233 231 230 229 229 229 228 228 228 228 228 230 232 234 236 237 239 239 240 240 241 242 244 245 244 244 245 246 246 244 240 238 241 242 244 247 249 251 252 253 254 255 256 257 260 263 265
267 266 265 263 262 260 259 259 258 257 257 256 255 255 254 254 254 254 253 253 253 253 252 252 252 251 251 250 250 250 247 241 236 234 232 233 234 234 235 235 233 233 232 231 230 229 229 228 228 228 228 228 229 230 231 233 234 235 236 237 237 238 239 241 242 243 243 244 244 244 242 237 236 239 241 242 245 248 250 251 251 253 254 255 257 259 262 264
265 264 263 262 260 259 257 257 256 255 254 254 253 253 252 252 252 252 252 251 250 250 250 250 250 249 248 248 248 248 248 244 238 235 234 233 233 234 234 235 234 233 232 231 230 229 229 228 228 228 227 227 228 229 229 230 232 232 233 233 234 235 236 237 239 240 240 240 240 240 239 237 236 238 239 241 243 246 248 250 251 252 254 255 257 260 261 263
262 261 261 260 259 257 256 254 254 253 252 251 251 250 250 250 249 249 250 249 248 248 248 247 247 246 245 245 246 247 248 246 241 238 236 235 234 233 233 234 234 233 233 232 231 229 229 228 228 228 227 226 227 228 228 229 230 231 232 232 233 234 234 235 236 237 237 238 237 236 237 237 237 238 240 242 244 246 248 250 251 253 255 257 258 260 262 263
260 258 258 258 257 256 254 252 251 251 250 249 248 248 248 247 247 247 248 248 246 245 245 244 244 244 243 244 244 245 246 245 243 239 238 236 234 232 232 233 234 233 233 232 231 230 229 228 228 227 227 226 226 228 229 229 229 230 231 232 233 234 234 235 235 235 236 237 236 235 236 237 238 240 241 243 245 246 248 251 253 254 255 257 259 260 262 263
258 257 256 255 254 254 253 251 249 248 248 247 246 245 245 245 245 245 245 245 244 243 242 242 242 242 241 242 242 242 243 244 243 241 238 237 235 233 232 233 233 233 233 232 232 230 229 229 228 227 227 226 226 228 229 229 229 229 230 231 233 234 235 235 236 236 236 237 237 237 238 239 241 242 243 244 246 247 249 251 253 254 255 256 258 259 260 261
258 257 255 254 253 252 252 250 248 246 245 245 244 242 242 242 242 242 242 242 241 240 240 240 240 240 239 239 239 240 241 242 243 242 240 237 236 234 232 232 233 233 233 233 233 232 230 229 228 227 226 226 227 228 229 230 231 230 230 230 232 234 235 236 236 237 238 238 238 239 239 240 242 243 244 245 247 248 249 250 252 254 255 256 257 258 259 261
259 257 256 254 253 252 252 251 249 246 244 243 242 240 240 239 239 239 239 238 238 238 238 237 237 237 237 237 237 237 239 240 241 243 241 238 236 235 232 231 232 233 233 232 232 232 231 231 229 228 226 226 227 228 229 231 232 232 231 232 233 235 236 237 237 237 237 238 238 239 240 240 241 243 245 247 249 250 251 251 252 254 256 257 258 260 260 261